Regional Weather Roundup
Issued by NWS

Home | Current Version | Previous Version | Text Only | Print | Product List | Glossary Off
Versions: 1 2 3 4 5 6 7 8 9 10 11 12 13 14 15 16 17 18 19 20 21 22 23 24 25 26 27 28 29 30 31 32 33 34 35 36 37 38 39 40 41 42 43 44 45 46 47 48 49 50

000
ASUS43 KFSD 281510
RWRSD

WEATHER ROUNDUP FOR SOUTH DAKOTA
NATIONAL WEATHER SERVICE SIOUX FALLS SD
1000 AM CDT TUE JUL 28 2015

NOTE: "FAIR" INDICATES FEW OR NO CLOUDS BELOW 12,000 FEET WITH NO
SIGNIFICANT WEATHER AND/OR OBSTRUCTIONS TO VISIBILITY.


SDZ001>005-009-010-012>017-281600-
NORTHWEST AND NORTH CENTRAL SOUTH DAKOTA

CITY           SKY/WX    TMP DP  RH WIND       PRES   REMARKS
BUFFALO          N/A     62  43  49 W40G52    29.83R
FAITH            N/A     64  43  46 W33G43    29.89R
MOBRIDGE       SUNNY     68  52  56 W21G31    29.81R
$$

SDZ012>016-024>037-041>051-057-063-072>074-281600-
SOUTHWEST AND SOUTH CENTRAL SOUTH DAKOTA

CITY           SKY/WX    TMP DP  RH WIND       PRES   REMARKS
RAPID CTY ARPT SUNNY     66  43  43 W20       30.00R
PIERRE         SUNNY     68  51  54 W23       29.90R
CUSTER         SUNNY     56  38  50 W13G21    30.09R
ELLSWORTH AFB  SUNNY     67  42  41 W17G29    29.99R
PHILIP         SUNNY     68  47  46 NW23G33   29.97R
PINE RIDGE     SUNNY     64  47  53 W17       30.04R
SPEARFISH      FAIR      61  39  44 W25G38    30.01S
WINNER         FAIR      68  54  60 NW21      29.96R
$$

SDZ004>011-016>023-039-040-281600-
NORTHEAST SOUTH DAKOTA

CITY           SKY/WX    TMP DP  RH WIND       PRES   REMARKS
ABERDEEN       MOSUNNY   69  56  62 W17G26    29.81S
WATERTOWN      CLOUDY    72  67  84 SW16      29.82S
BROOKINGS      PTSUNNY   75  66  73 SW15G21   29.83S
SISSETON         N/A     75  67  76 W17G24    29.76R
$$

SDZ017-020-022-023-036>040-048>070-281600-
SOUTHEAST SOUTH DAKOTA

CITY           SKY/WX    TMP DP  RH WIND       PRES   REMARKS
SIOUX FALLS    MOSUNNY   76  68  76 SW9       29.80F
HURON          MOSUNNY   70  61  73 NW18      29.86R
CHAMBERLAIN    SUNNY     66  55  66 NW15G26   29.95R
MITCHELL       CLOUDY    72  68  87 W8        29.87R
YANKTON        CLOUDY    81  70  69 MISG      29.83S
$$

ABBREVIATIONS USED IN REMARKS
   TC - TEMPERATURE IN CELSIUS
  WCI - WIND CHILL INDEX
   HX - HEAT INDEX
  VSB - VISIBILITY




USA.gov is the U.S. government's official web portal to all federal, state and local government web resources and services.